Regional Weather Roundup
Issued by NWS

Home | Current Version | Previous Version | Graphics & Text | Print | Product List | Glossary On
Versions: 1 2 3 4 5 6 7 8 9 10 11 12 13 14 15 16 17 18 19 20 21 22 23 24 25 26 27 28 29 30 31 32 33 34 35 36 37 38 39 40 41 42 43 44 45 46 47 48 49 50
000
ASUS43 KBIS 021910
RWRND

NORTH DAKOTA REGIONAL WEATHER ROUNDUP
NATIONAL WEATHER SERVICE BISMARCK ND
200 PM CDT SUN AUG 02 2015

NOTE: "FAIR" INDICATES FEW OR NO CLOUDS BELOW 12,000 FEET WITH NO
SIGNIFICANT WEATHER AND/OR OBSTRUCTIONS TO VISIBILITY.


NDZ001>003-009>011-017-022000-
NORTHWEST NORTH DAKOTA

CITY           SKY/WX    TMP DP  RH WIND       PRES   REMARKS
WILLISTON      MOSUNNY   79  50  36 N8G18     30.00S
MINOT          MOSUNNY   73  48  41 N12       29.94F
MINOT AFB      MOSUNNY   76  50  39 NW13      29.93F
$$

NDZ018>021-031>035-040>046-022000-
SOUTHWEST NORTH DAKOTA

CITY           SKY/WX    TMP DP  RH WIND       PRES   REMARKS
BISMARCK       MOSUNNY   78  54  43 N15       29.94F
DICKINSON      SUNNY     78  50  37 N8G17     29.99S
GARRISON         N/A     74  54  49 N8G16     29.95F
HETTINGER ARPT SUNNY     81  48  31 N13G20    30.00S
$$

NDZ004>008-012>016-024-026-027-054-022000-
NORTHEAST NORTH DAKOTA

CITY           SKY/WX    TMP DP  RH WIND       PRES   REMARKS
GRAND FORKS    MOSUNNY   75  51  43 N14G26    29.82R
GRND FRKS AFB  MOSUNNY   75  50  41 NW21      29.84R
DEVILS LAKE    SUNNY     73  46  38 NW20      29.88S
$$

NDZ022-023-025-028>030-036>039-047>053-022000-
SOUTHEAST NORTH DAKOTA

CITY           SKY/WX    TMP DP  RH WIND       PRES   REMARKS
FARGO          MOSUNNY   77  54  44 N17       29.83R
JAMESTOWN      PTSUNNY   75  56  51 N15       29.88F
$$



USA.gov is the U.S. government's official web portal to all federal, state and local government web resources and services.